Weather History for Perry, IA

Change the Weather History Date:

Saturday, May 11, 2013

  Actual Average Record
Temperature  
Mean Temperature 48 °F -  
Max Temperature 56 °F 72 °F 89 °F (1987)
Min Temperature 41 °F 47 °F 28 °F (1981)
Degree Days  
Heating Degree Days 16    
Moisture  
Dew Point 30 °F    
Average Humidity 47    
Maximum Humidity 81    
Minimum Humidity 24    
Precipitation  
Precipitation 0.00 in - - ()
Sea Level Pressure  
Sea Level Pressure 30.14 in    
Wind  
Wind Speed 15 mph (NW)    
Max Wind Speed 29 mph    
Max Gust Speed 38 mph    
Visibility 10 miles    
Events      
Averages and records for this station are not official NWS values.
T = Trace of Precipitation, MM = Missing Value Source: NWS Daily Summary

Daily Weather History Graph

Daily Weather History Graph

Search for Another Location

Airport:

Trip Planner

Search our weather history database for the weather conditions in past years. The results will help you decide how hot, cold, wet, or windy it might be!

Date:

Astronomy

May. 11, 2013 Rise Set
Actual Time 6:00 AM CDT 8:26 PM CDT
Civil Twilight 5:29 AM CDT 8:57 PM CDT
Nautical Twilight 4:50 AM CDT 9:36 PM CDT
Astronomical Twilight 4:06 AM CDT 10:20 PM CDT
Moon 7:08 AM CDT (5/11) 10:07 PM CDT (5/11)
Length of Visible Light 15h 28m
Length of Day
14h 25m
Waxing Crescent, 3% of the Moon is Illuminated
May 11
Waxing Crescent
May 17
First Quarter
May 24
Full
May 31
Last Quarter
Jun 8
New

Hourly Weather History & Observations

Time (CDT) Temp. Windchill Dew Point Humidity Pressure Visibility Wind Dir Wind Speed Gust Speed Precip Events Conditions
12:15 AM 53.1 °F - 46.4 °F 78% 30.00 in 10.0 mi West 9.2 mph - N/A   Clear
12:35 AM 52.0 °F - 46.4 °F 81% 30.00 in 10.0 mi West 6.9 mph - N/A   Clear
12:55 AM 52.0 °F - 45.7 °F 79% 29.99 in 10.0 mi West 8.1 mph - N/A   Clear
1:15 AM 52.0 °F - 45.5 °F 79% 29.99 in 10.0 mi WSW 8.1 mph - N/A   Clear
1:35 AM 51.4 °F - 45.0 °F 79% 29.99 in 10.0 mi WSW 9.2 mph - N/A   Clear
1:55 AM 51.1 °F - 45.1 °F 80% 29.98 in 10.0 mi WSW 8.1 mph - N/A   Clear
2:15 AM 51.8 °F - 44.6 °F 76% 29.98 in 10.0 mi WSW 9.2 mph - N/A   Clear
2:35 AM 51.4 °F - 45.0 °F 79% 29.98 in 10.0 mi West 8.1 mph - N/A   Scattered Clouds
2:55 AM 52.2 °F - 45.1 °F 77% 29.97 in 10.0 mi West 9.2 mph - N/A   Mostly Cloudy
3:15 AM 53.2 °F - 44.6 °F 72% 30.00 in 10.0 mi NW 12.7 mph 18.4 mph N/A   Mostly Cloudy
3:35 AM 54.1 °F - 43.3 °F 67% 30.01 in 10.0 mi NNW 16.1 mph 21.9 mph N/A   Mostly Cloudy
3:55 AM 54.0 °F - 41.0 °F 62% 30.02 in 10.0 mi NW 16.1 mph 24.2 mph N/A   Scattered Clouds
4:15 AM 53.1 °F - 39.7 °F 61% 30.03 in 10.0 mi NNW 17.3 mph - N/A   Scattered Clouds
4:35 AM 51.6 °F - 36.7 °F 57% 30.04 in 10.0 mi NNW 18.4 mph 25.3 mph N/A   Scattered Clouds
4:55 AM 50.9 °F - 35.1 °F 55% 30.05 in 10.0 mi NNW 18.4 mph 24.2 mph N/A   Scattered Clouds
5:35 AM 48.6 °F - 32.2 °F 53% 30.07 in 10.0 mi NNW 16.1 mph 21.9 mph N/A   Clear
5:55 AM 47.7 °F - 31.3 °F 53% 30.08 in 10.0 mi NNW 15.0 mph 19.6 mph N/A   Clear
6:15 AM 46.8 °F - 31.6 °F 56% 30.09 in 10.0 mi NNW 13.8 mph 18.4 mph N/A   Clear
6:35 AM 46.0 °F 40.2 °F 32.0 °F 58% 30.10 in 10.0 mi NNW 12.7 mph - N/A   Clear
6:55 AM 46.4 °F 40.7 °F 32.0 °F 57% 30.11 in 10.0 mi NW 12.7 mph - N/A   Clear
7:15 AM 46.9 °F - 32.0 °F 56% 30.12 in 10.0 mi NW 12.7 mph - N/A   Clear
7:35 AM 47.5 °F - 30.9 °F 53% 30.13 in 10.0 mi NNW 18.4 mph - N/A   Clear
7:55 AM 47.8 °F - 31.3 °F 53% 30.14 in 10.0 mi NNW 18.4 mph 27.6 mph N/A   Clear
8:15 AM 48.4 °F - 32.2 °F 54% 30.14 in 10.0 mi NNW 24.2 mph 28.8 mph N/A   Clear
8:35 AM 49.5 °F - 32.4 °F 52% 30.15 in 10.0 mi NNW 20.7 mph 26.5 mph N/A   Clear
8:55 AM 50.0 °F - 33.6 °F 53% 30.16 in 10.0 mi NNW 18.4 mph 24.2 mph N/A   Clear
9:15 AM 50.4 °F - 32.2 °F 50% 30.16 in 10.0 mi NNW 23.0 mph 29.9 mph N/A   Clear
9:35 AM 51.3 °F - 31.5 °F 47% 30.17 in 10.0 mi NNW 20.7 mph 27.6 mph N/A   Clear
9:55 AM 51.8 °F - 30.9 °F 45% 30.17 in 10.0 mi North 19.6 mph 28.8 mph N/A   Clear
10:15 AM 51.8 °F - 32.2 °F 47% 30.18 in 10.0 mi NNW 21.9 mph 27.6 mph N/A   Clear
10:35 AM 52.9 °F - 32.5 °F 46% 30.18 in 10.0 mi North 21.9 mph 28.8 mph N/A   Scattered Clouds
10:55 AM 52.9 °F - 32.4 °F 46% 30.18 in 10.0 mi NNW 21.9 mph 32.2 mph N/A   Scattered Clouds
11:15 AM 53.2 °F - 30.4 °F 42% 30.18 in 10.0 mi North 25.3 mph 32.2 mph N/A   Scattered Clouds
11:35 AM 53.4 °F - 29.7 °F 40% 30.18 in 10.0 mi NW 23.0 mph 36.8 mph N/A   Scattered Clouds
11:55 AM 54.0 °F - 28.9 °F 38% 30.19 in 10.0 mi NNW 26.5 mph 35.7 mph N/A   Scattered Clouds
12:15 PM 53.8 °F - 28.2 °F 37% 30.19 in 10.0 mi NNW 27.6 mph 36.8 mph N/A   Mostly Cloudy
12:35 PM 54.0 °F - 29.8 °F 40% 30.19 in 10.0 mi NNW 28.8 mph 36.8 mph N/A   Mostly Cloudy
12:55 PM 54.0 °F - 30.7 °F 41% 30.19 in 10.0 mi NNW 21.9 mph 34.5 mph N/A   Mostly Cloudy
1:35 PM 54.5 °F - 30.6 °F 40% 30.19 in 10.0 mi NW 19.6 mph 26.5 mph N/A   Scattered Clouds
1:55 PM 54.5 °F - 27.0 °F 35% 30.19 in 10.0 mi NNW 20.7 mph 33.4 mph N/A   Scattered Clouds
2:15 PM 55.6 °F - 29.1 °F 36% 30.19 in 10.0 mi NNW 19.6 mph 27.6 mph N/A   Clear
2:35 PM 55.4 °F - 29.3 °F 37% 30.20 in 10.0 mi NW 23.0 mph 32.2 mph N/A   Scattered Clouds
2:55 PM 56.1 °F - 25.5 °F 31% 30.20 in 10.0 mi NNW 23.0 mph 33.4 mph N/A   Scattered Clouds
3:15 PM 55.6 °F - 26.6 °F 33% 30.20 in 10.0 mi NNW 24.2 mph 33.4 mph N/A   Scattered Clouds
3:35 PM 55.6 °F - 24.8 °F 30% 30.19 in 10.0 mi NW 24.2 mph 38.0 mph N/A   Clear
3:55 PM 55.8 °F - 24.6 °F 30% 30.19 in 10.0 mi NNW 26.5 mph 36.8 mph N/A   Clear
4:15 PM 55.9 °F - 24.3 °F 29% 30.19 in 10.0 mi NW 23.0 mph 33.4 mph N/A   Clear
4:35 PM 55.6 °F - 22.5 °F 28% 30.19 in 10.0 mi NNW 24.2 mph 32.2 mph N/A   Clear
4:55 PM 55.8 °F - 21.0 °F 26% 30.19 in 10.0 mi NNW 26.5 mph 35.7 mph N/A   Clear
5:15 PM 55.4 °F - 22.3 °F 28% 30.19 in 10.0 mi NNW 21.9 mph 31.1 mph N/A   Clear
5:35 PM 55.6 °F - 21.2 °F 26% 30.19 in 10.0 mi NNW 25.3 mph 31.1 mph N/A   Clear
5:55 PM 55.8 °F - 22.1 °F 27% 30.18 in 10.0 mi NW 23.0 mph 29.9 mph N/A   Clear
6:15 PM 55.4 °F - 20.5 °F 26% 30.19 in 10.0 mi NNW 20.7 mph 27.6 mph N/A   Clear
6:35 PM 55.2 °F - 19.0 °F 24% 30.19 in 10.0 mi NNW 19.6 mph 26.5 mph N/A   Clear
6:55 PM 54.9 °F - 18.7 °F 24% 30.19 in 10.0 mi NNW 20.7 mph 26.5 mph N/A   Clear
7:15 PM 54.0 °F - 19.4 °F 26% 30.18 in 10.0 mi North 17.3 mph 24.2 mph N/A   Clear
7:35 PM 53.6 °F - 17.1 °F 24% 30.19 in 10.0 mi North 18.4 mph 24.2 mph N/A   Clear
7:55 PM 52.5 °F - 18.1 °F 26% 30.19 in 10.0 mi North 17.3 mph 25.3 mph N/A   Clear
8:15 PM 51.3 °F - 20.1 °F 29% 30.19 in 10.0 mi North 15.0 mph - N/A   Clear
8:35 PM 50.2 °F - 20.3 °F 31% 30.20 in 10.0 mi NNW 12.7 mph - N/A   Clear
8:55 PM 49.1 °F - 20.3 °F 32% 30.20 in 10.0 mi North 11.5 mph - N/A   Clear
9:15 PM 47.7 °F - 23.9 °F 39% 30.21 in 10.0 mi NNW 8.1 mph - N/A   Clear
9:35 PM 46.8 °F - 24.1 °F 41% 30.21 in 10.0 mi NNW 9.2 mph - N/A   Clear
9:55 PM 46.4 °F 41.9 °F 24.4 °F 42% 30.21 in 10.0 mi NNW 9.2 mph - N/A   Clear
10:15 PM 45.3 °F 41.1 °F 25.3 °F 46% 30.21 in 10.0 mi NNW 8.1 mph - N/A   Clear
10:35 PM 45.3 °F 41.1 °F 24.8 °F 45% 30.22 in 10.0 mi NNW 8.1 mph - N/A   Clear
10:55 PM 43.9 °F 40.5 °F 27.0 °F 51% 30.22 in 10.0 mi NW 5.8 mph - N/A   Clear
11:15 PM 41.9 °F 38.2 °F 28.9 °F 60% 30.22 in 10.0 mi NW 5.8 mph - N/A   Clear
11:35 PM 41.2 °F 37.3 °F 29.5 °F 63% 30.22 in 10.0 mi NW 5.8 mph - N/A   Clear